FLOCK 4A-15 (44100 NORAD) Tracking and Keplerian Element Data

This shows tracking and keplerian element data for the satellite.

Feedback or suggestion? Click here.




ElementValue
Catalog44100
NameFLOCK 4A-15
Epoch Orbit309
Epoch Day111.71789262
Epoch Year2019
RAAN172.1177
Inclination97.4621
Eccentricity0.001103
Argument of Perigee218.2442
Mean Anonmoly141.8013
Mean Motion15.22131371
Decay Rate1.645E-05
L11 44100U 19018Y 19111.71789262 .00001645 00000-0 74801-4 0 9993
L22 44100 97.4621 172.1177 0011030 218.2442 141.8013 15.22131371 3090

Live tracking and technical data element details for FLOCK 4A-15 (NORAD 44100). FLOCK 4A-15 can be tracked NOW for your location showing map with azimuth and elevation plus other details from your city location.

Track the satellite on the map from your city or location and see movement details for azimuth, elevation, latitude, longitude, range, height, and movement on the map or in text.







IsCatalogInMostPopularTable: catalog: 44100, numindb: 13
Update: records affected: 1



GetName: 44100 FLOCK 4A-15

Hit Count: updated at: Tue, 23 Apr 2019 02:16:09 GMT